Location: Binningen
(47.7924°N, 8.7261°E)
Time: 16:53:16
(UTC+00:00)

Cosmos 1733 Rocket - Pass Details

Date: 03 October 2021
Orbit: 604 x 627 km, 82.5° (Epoch: 20 October)

Event Time Altitude Azimuth Distance (km) Brightness Sun altitude
Rises 17:53:35 0° 232° (SW) 2,851 7.3 -9.8°
Reaches altitude 10° 17:56:29 10° 252° (WSW) 1,955 6.8 -10.3°
Maximum altitude 17:59:19 17° 294° (WNW) 1,555 6.2 -10.8°
Drops below altitude 10° 18:02:11 10° 335° (NNW) 1,970 6.1 -11.2°
Sets 18:05:08 0° 356° (N) 2,884 6.6 -11.7°
